Regional Weather Roundup
Issued by NWS

Home | Current Version | Previous Version | Graphics & Text | Print | Product List | Glossary On
Versions: 1 2 3 4 5 6 7 8 9 10 11 12 13 14 15 16 17 18 19 20 21 22 23 24 25 26 27 28 29 30 31 32 33 34 35 36 37 38 39 40 41 42 43 44 45 46 47 48 49 50
000
ASUS43 KOAX 280910
RWRNE

WEATHER ROUNDUP FOR NEBRASKA
NATIONAL WEATHER SERVICE OMAHA NE
400 AM CDT WED JUN 28 2017

NOTES: SATELLITE DATA IS BEING USED TO AUGMENT CLOUD COVER ABOVE
       12000 FEET.
       "FAIR" INDICATES FEW OR NO CLOUDS BELOW 12,000 FEET WITH NO
       SIGNIFICANT WEATHER AND/OR OBSTRUCTIONS TO VISIBILITY.

  * THESE STATIONS DO NOT REPORT WEATHER SUCH AS RAIN...SNOW OR FOG.

NEZ001>004-019>022-054>056-281000-
NEBRASKA PANHANDLE

CITY           SKY/WX    TMP DP  RH WIND       PRES   REMARKS
SCOTTSBLUFF    CLEAR     56  49  77 NW7       29.86S
ALLIANCE       CLEAR     51  49  92 W9        29.82R
CHADRON        CLEAR     59  50  72 S9        29.79R
GORDON         FAIR      57  53  85 W9        29.77R
KIMBALL        CLEAR     56  45  67 NW10      29.91F
SIDNEY         CLEAR     53  50  89 W7        29.88F
$$

NEZ057>060-069>072-079>082-281000-
SOUTHWEST NEBRASKA

CITY           SKY/WX    TMP DP  RH WIND       PRES   REMARKS
NORTH PLATTE   PTCLDY    59  58  96 NW7       29.75S
IMPERIAL       CLOUDY    61  55  81 S5        29.78F
LEXINGTON      CLOUDY    65  62  90 CALM      29.70F
MCCOOK         PTCLDY    71  60  68 S6        29.75R
OGALLALA       CLOUDY    59  54  85 W5        29.79F
$$

NEZ005>010-023>029-035>040-094-281000-
NORTH CENTRAL NEBRASKA

CITY           SKY/WX    TMP DP  RH WIND       PRES   REMARKS
VALENTINE      CLEAR     60  54  80 SW8       29.70R
AINSWORTH      CLOUDY    62  57  83 W8        29.72S
BROKEN BOW     PTCLDY    60  58  92 CALM      29.70S
O`NEILL        MOCLDY    64  60  85 SW10      29.68R
ORD            CLOUDY    63  59  87 S3        29.66F
THEDFORD       CLEAR     60  55  82 W7        29.75R
$$

NEZ041-046>049-061>064-073>077-083>087-281000-
SOUTH CENTRAL NEBRASKA

CITY           SKY/WX    TMP DP  RH WIND       PRES   REMARKS
GRAND ISLAND   CLOUDY    66  66 100 NE5       29.69F
AURORA         CLOUDY    67  64  92 SE9       29.65F
HASTINGS       MOCLDY    68  63  84 SE8       29.72F
HEBRON         CLOUDY    77  66  68 CALM      29.77R
HOLDREGE       CLOUDY    66  63  90 S3        29.72F
KEARNEY *      CLOUDY    66  63  88 S8        29.71R
YORK           CLOUDY    66  63  88 SE14      29.68F
$$

NEZ011>018-030>034-042>045-281000-
NORTHEAST NEBRASKA

CITY           SKY/WX    TMP DP  RH WIND       PRES   REMARKS
NORFOLK        CLOUDY    66  63  90 S15G26    29.66R
ALBION         CLOUDY    66  63  89 SE7       29.67F
BLAIR          CLOUDY    65  64  97 S18G24    29.76F
FREMONT        CLOUDY    65  62  90 S9G17     29.71F
TEKAMAH        CLOUDY    67  63  87 S14       29.70F
WAYNE          CLOUDY    67  66  99 S22       29.66R
$$

NEZ050>053-065>068-078-088>093-281000-
SOUTHEAST NEBRASKA

CITY           SKY/WX    TMP DP  RH WIND       PRES   REMARKS
LINCOLN        CLOUDY    64  62  93 E13       29.77F THUNDER
OMAHA EPPLEY   TSTM      68  63  84 S13G23    29.82R
BEATRICE       CLOUDY    71  68  91 SE8       29.78S
FALLS CITY     CLOUDY    76  64  66 W9        29.83R
NEBRASKA CITY  TSTM      68  68 100 SW13      29.81F
PLATTSMOUTH    TSTM      64  63  94 W12G33    29.88R
$$

NEZ044-045-051>053-067-281000-
OMAHA AREA

CITY           SKY/WX    TMP DP  RH WIND       PRES   REMARKS
OMAHA EPPLEY   TSTM      68  63  84 S13G23    29.82R
BLAIR          CLOUDY    65  64  97 S18G24    29.76F
FREMONT        CLOUDY    65  62  90 S9G17     29.71F
MILLARD        TSTM      67  66  96 SE9       29.78F
OFFUTT AFB     TSTM      66  64  94 W6        29.81R FOG
PLATTSMOUTH    TSTM      64  63  94 W12G33    29.88R
WAHOO          LGT RAIN  64  62  91 S14       29.74F
$$



USA.gov is the U.S. government's official web portal to all federal, state and local government web resources and services.